Houghton, MI

1:59 AM EDT on March 26, 2017 (GMT -0400)
Houghton County Memorial

Weather History for KCMX - March, 2013

Change the Weather History Date:

Monday, March 11, 2013

  Actual Average Record
Temperature  
Mean Temperature 26 °F -  
Max Temperature 30 °F 28 °F 54 °F (2012)
Min Temperature 19 °F 13 °F -12 °F (1984)
Degree Days  
Heating Degree Days 40    
Moisture  
Dew Point 21 °F    
Average Humidity 86    
Maximum Humidity 93    
Minimum Humidity 72    
Precipitation  
Precipitation 0.13 in - - ()
Sea Level Pressure  
Sea Level Pressure 29.70 in    
Wind  
Wind Speed 15 mph (NNE)    
Max Wind Speed 22 mph    
Max Gust Speed 29 mph    
Visibility 2 miles    
Events Fog , Snow    
Averages and records for this station are not official NWS values.
T = Trace of Precipitation, MM = Missing Value Source: NWS Daily Summary

Daily Weather History Graph

Daily Weather History Graph

Search for Another Location

Airport or City:

Trip Planner

Search our weather history database for the weather conditions in past years. The results will help you decide how hot, cold, wet, or windy it might be!

Date:

Astronomy

Mar. 11, 2013 Rise Set
Actual Time 8:14 AM EDT 7:54 PM EDT
Civil Twilight 7:43 AM EDT 8:24 PM EDT
Nautical Twilight 7:08 AM EDT 9:00 PM EDT
Astronomical Twilight 6:32 AM EDT 9:36 PM EDT
Moon 7:46 AM EDT (3/11) 8:10 PM EDT (3/11)
Length of Visible Light 12h 40m
Length of Day
11h 40m
Waning Crescent, 0% of the Moon is Illuminated
Mar 11
Waning Crescent
Mar 11
New
Mar 19
First Quarter
Mar 27
Full
Apr 3
Last Quarter

Hourly Weather History & Observations

Time (EDT) Temp. Windchill Dew Point Humidity Pressure Visibility Wind Dir Wind Speed Gust Speed Precip Events Conditions
12:53 AM 30.0 °F 20.0 °F 21.9 °F 72% 29.94 in 10.0 mi NE 12.7 mph - N/A   Overcast
1:53 AM 28.9 °F 18.6 °F 24.1 °F 82% 29.91 in 5.0 mi NE 12.7 mph 20.7 mph 0.00 in Snow Light Snow
2:04 AM 28.4 °F 18.0 °F 24.8 °F 86% 29.86 in 1.8 mi ENE 12.7 mph - 0.00 in Snow Light Snow
2:16 AM 28.4 °F 16.2 °F 26.6 °F 93% 29.85 in 0.5 mi NE 17.3 mph 20.7 mph N/A Fog , Snow Snow
2:53 AM 28.0 °F 17.5 °F 26.1 °F 92% 29.86 in 0.5 mi ENE 12.7 mph - 0.02 in Fog , Snow Snow
3:53 AM 28.0 °F 17.5 °F 26.1 °F 92% 29.84 in 0.5 mi NE 12.7 mph - 0.04 in Fog , Snow Snow
4:53 AM 27.0 °F 15.2 °F 25.0 °F 92% 29.81 in 0.8 mi NE 15.0 mph 26.5 mph 0.02 in Snow Light Snow
5:53 AM 26.6 °F 14.7 °F 24.8 °F 93% 29.75 in 0.8 mi NE 15.0 mph - N/A Snow Light Snow
6:09 AM 26.6 °F 14.3 °F 24.8 °F 93% 29.73 in 0.8 mi NE 16.1 mph 26.5 mph 0.00 in Snow Light Snow
6:16 AM 26.6 °F 14.3 °F 24.8 °F 93% 29.74 in 1.0 mi NE 16.1 mph 28.8 mph 0.00 in Snow Light Snow
6:29 AM 26.6 °F 14.3 °F 24.8 °F 93% 29.73 in 1.2 mi NE 16.1 mph - 0.00 in Snow Light Snow
6:53 AM 27.0 °F 15.6 °F 24.1 °F 89% 29.78 in 1.8 mi NE 13.8 mph 25.3 mph 0.00 in Snow Light Snow
7:01 AM 26.6 °F 13.4 °F 24.8 °F 93% 29.73 in 2.5 mi NE 18.4 mph 24.2 mph 0.00 in Snow Light Snow
7:30 AM 26.6 °F 13.4 °F 23.0 °F 86% 29.73 in 1.8 mi NE 18.4 mph 28.8 mph N/A Snow Light Snow
7:53 AM 25.0 °F 11.3 °F 21.9 °F 88% 29.78 in 2.5 mi NNE 18.4 mph 27.6 mph 0.00 in Snow Light Snow
8:05 AM 24.8 °F 11.5 °F 21.2 °F 86% 29.73 in 2.5 mi NNE 17.3 mph - 0.00 in Snow Light Snow
8:19 AM 24.8 °F 10.7 °F 21.2 °F 86% 29.73 in 3.0 mi NE 19.6 mph 25.3 mph 0.00 in Snow Light Snow
8:39 AM 24.8 °F 11.5 °F 21.2 °F 86% 29.73 in 2.0 mi NNE 17.3 mph 25.3 mph 0.00 in Snow Light Snow
8:41 AM 24.8 °F 10.0 °F 21.2 °F 86% 29.73 in 1.8 mi NNE 21.9 mph 26.5 mph 0.00 in Snow Light Snow
8:44 AM 24.8 °F 11.1 °F 21.2 °F 86% 29.73 in 2.0 mi NNE 18.4 mph 26.5 mph 0.00 in Snow Light Snow
8:53 AM 24.1 °F 9.8 °F 21.0 °F 88% 29.78 in 4.0 mi NNE 19.6 mph 26.5 mph 0.00 in Snow Light Snow
9:53 AM 23.0 °F 9.6 °F 19.9 °F 88% 29.77 in 5.0 mi NNE 16.1 mph 24.2 mph 0.00 in Snow Light Snow
10:16 AM 23.0 °F 10.1 °F 19.4 °F 86% 29.71 in 4.0 mi NNE 15.0 mph 25.3 mph 0.00 in Snow Light Snow
10:29 AM 23.0 °F 10.1 °F 19.4 °F 86% 29.71 in 2.0 mi NNE 15.0 mph 24.2 mph 0.00 in Snow Light Snow
10:36 AM 23.0 °F 9.6 °F 19.4 °F 86% 29.71 in 1.2 mi NNE 16.1 mph - 0.00 in Snow Light Snow
10:41 AM 23.0 °F 10.6 °F 19.4 °F 86% 29.71 in 0.8 mi NNE 13.8 mph - 0.01 in Snow Light Snow
10:50 AM 23.0 °F 9.6 °F 19.4 °F 86% 29.70 in 0.8 mi NE 16.1 mph 23.0 mph 0.01 in Snow Light Snow
10:53 AM 23.0 °F 10.6 °F 19.9 °F 88% 29.75 in 0.5 mi NNE 13.8 mph 23.0 mph 0.01 in Fog , Snow Snow
11:40 AM 23.0 °F 9.6 °F 19.4 °F 86% 29.69 in 0.8 mi NNE 16.1 mph 20.7 mph 0.01 in Snow Light Snow
11:53 AM 24.1 °F 12.5 °F 19.9 °F 84% 29.73 in 0.8 mi NNE 12.7 mph 20.7 mph 0.01 in Snow Light Snow
12:27 PM 24.8 °F 13.4 °F 21.2 °F 86% 29.67 in 0.5 mi NNE 12.7 mph - 0.00 in Fog , Snow Snow
12:53 PM 24.1 °F 11.0 °F 21.0 °F 88% 29.70 in 0.5 mi NNE 16.1 mph - 0.00 in Fog , Snow Snow
1:23 PM 24.8 °F 11.5 °F 19.4 °F 80% 29.65 in 0.8 mi NNE 17.3 mph 21.9 mph 0.01 in Snow Light Snow
1:44 PM 24.8 °F 13.4 °F 19.4 °F 80% 29.65 in 1.0 mi North 12.7 mph - 0.01 in Snow Light Snow
1:53 PM 24.1 °F 11.0 °F 19.9 °F 84% 29.70 in 1.2 mi NNE 16.1 mph 21.9 mph 0.01 in Snow Light Snow
2:42 PM 24.8 °F 13.4 °F 19.4 °F 80% 29.63 in 0.8 mi NNE 12.7 mph 23.0 mph 0.00 in Snow Light Snow
2:53 PM 24.1 °F 11.5 °F 19.9 °F 84% 29.68 in 0.5 mi NNE 15.0 mph 20.7 mph 0.00 in Fog , Snow Snow
3:04 PM 24.8 °F 13.4 °F 19.4 °F 80% 29.63 in 0.8 mi North 12.7 mph - 0.00 in Snow Light Snow
3:12 PM 24.8 °F 12.4 °F 19.4 °F 80% 29.63 in 1.0 mi NNE 15.0 mph 20.7 mph 0.00 in Snow Light Snow
3:43 PM 24.8 °F 12.4 °F 19.4 °F 80% 29.63 in 0.8 mi NNE 15.0 mph 23.0 mph 0.00 in Snow Light Snow
3:53 PM 24.1 °F 10.1 °F 19.0 °F 81% 29.67 in 0.5 mi NNE 18.4 mph - 0.00 in Snow Snow
4:02 PM 24.8 °F 12.9 °F 19.4 °F 80% 29.62 in 0.5 mi North 13.8 mph - 0.01 in Fog , Snow Snow
4:20 PM 24.8 °F 12.4 °F 19.4 °F 80% 29.62 in 0.8 mi NNE 15.0 mph 21.9 mph 0.01 in Snow Light Snow
4:28 PM 24.8 °F 12.4 °F 19.4 °F 80% 29.62 in 1.2 mi North 15.0 mph 21.9 mph 0.01 in Snow Light Snow
4:35 PM 24.8 °F 13.4 °F 19.4 °F 80% 29.62 in 0.8 mi North 12.7 mph 21.9 mph 0.01 in Snow Light Snow
4:53 PM 24.1 °F 12.0 °F 19.9 °F 84% 29.66 in 1.0 mi NNE 13.8 mph 21.9 mph 0.01 in Snow Light Snow
5:44 PM 23.0 °F 9.6 °F 19.4 °F 86% 29.61 in 2.5 mi North 16.1 mph 21.9 mph 0.00 in Snow Light Snow
5:53 PM 23.0 °F 9.2 °F 19.0 °F 85% 29.66 in 2.5 mi North 17.3 mph - 0.00 in Snow Light Snow
6:05 PM 23.0 °F 10.1 °F 19.4 °F 86% 29.61 in 2.5 mi North 15.0 mph 23.0 mph 0.00 in Snow Light Snow
6:12 PM 23.0 °F 10.1 °F 19.4 °F 86% 29.61 in 2.5 mi North 15.0 mph - 0.00 in Snow Light Snow
6:15 PM 23.0 °F 10.6 °F 19.4 °F 86% 29.61 in 3.0 mi North 13.8 mph - 0.00 in Snow Light Snow
6:28 PM 23.0 °F 10.6 °F 19.4 °F 86% 29.61 in 3.0 mi North 13.8 mph - 0.00 in Snow Light Snow
6:37 PM 23.0 °F 11.1 °F 19.4 °F 86% 29.61 in 2.0 mi North 12.7 mph - 0.00 in Snow Light Snow
6:45 PM 21.2 °F 7.3 °F 19.4 °F 93% 29.61 in 1.8 mi North 16.1 mph 24.2 mph 0.00 in Snow Light Snow
6:53 PM 21.2 °F 8.9 °F 19.4 °F 93% 29.61 in 1.5 mi North 12.7 mph - N/A Snow Light Snow
7:18 PM 21.2 °F 7.8 °F 17.6 °F 86% 29.61 in 1.5 mi North 15.0 mph - 0.00 in Snow Light Snow
7:47 PM 21.2 °F 9.5 °F 17.6 °F 86% 29.61 in 2.0 mi North 11.5 mph 21.9 mph 0.00 in Snow Light Snow
7:53 PM 21.9 °F 11.0 °F 18.0 °F 85% 29.67 in 2.5 mi North 10.4 mph - 0.00 in Snow Light Snow
7:57 PM 21.2 °F 9.5 °F 17.6 °F 86% 29.61 in 3.0 mi North 11.5 mph - 0.00 in Snow Light Snow
8:29 PM 21.2 °F 9.5 °F 17.6 °F 86% 29.61 in 6.0 mi North 11.5 mph - 0.00 in Snow Light Snow
8:53 PM 21.0 °F 11.4 °F 17.1 °F 85% 29.67 in 9.0 mi North 8.1 mph 18.4 mph 0.00 in Snow Light Snow
9:53 PM 21.0 °F 10.6 °F 17.1 °F 85% 29.69 in 5.0 mi North 9.2 mph - 0.00 in Snow Light Snow
10:53 PM 21.0 °F 13.4 °F 16.0 °F 81% 29.69 in 9.0 mi North 5.8 mph - 0.00 in Snow Light Snow
11:53 PM 19.9 °F 9.3 °F 16.0 °F 85% 29.68 in 2.5 mi North 9.2 mph - 0.01 in Snow Light Snow